Weather History for Buffalo, WY

Change the Weather History Date:

Sunday, February 16, 2014

  Actual Average Record
Temperature  
Mean Temperature 41 °F 28 °F  
Max Temperature 57 °F 38 °F 57 °F (2014)
Min Temperature 24 °F 18 °F -10 °F (2006)
Degree Days  
Heating Degree Days 24 37  
Month to date heating degree days 785 603  
Since 1 July heating degree days 4732 4810  
Cooling Degree Days 0 0  
Month to date cooling degree days 0 0  
Year to date cooling degree days 0 0  
Moisture  
Dew Point 26 °F    
Average Humidity 58    
Maximum Humidity 85    
Minimum Humidity 30    
Precipitation  
Precipitation T in 0.02 in 0.08 in (2008)
Month to date precipitation 0.12 0.20  
Year to date precipitation 0.33 0.62  
Sea Level Pressure  
Sea Level Pressure 29.65 in    
Wind  
Wind Speed 14 mph (NW)    
Max Wind Speed 39 mph    
Max Gust Speed 48 mph    
Visibility 8 miles    
Events Fog , Rain , Snow    
T = Trace of Precipitation, MM = Missing Value Source: NWS Daily Summary

Daily Weather History Graph

Daily Weather History Graph

Search for Another Location

Airport:

Trip Planner

Search our weather history database for the weather conditions in past years. The results will help you decide how hot, cold, wet, or windy it might be!

Date:

Astronomy

Feb. 16, 2014 Rise Set
Actual Time 7:05 AM MST 5:37 PM MST
Civil Twilight 6:35 AM MST 6:07 PM MST
Nautical Twilight 6:01 AM MST 6:41 PM MST
Astronomical Twilight 5:27 AM MST 7:14 PM MST
Moon 7:43 PM MST (2/16) 7:30 AM MST (2/16)
Length of Visible Light 11h 31m
Length of Day
10h 32m
Full, 97% of the Moon is Illuminated
Feb 16
Full
Feb 22
Last Quarter
Mar 1
New
Mar 8
First Quarter
Mar 16
Full

Hourly Weather History & Observations

Time (MST) Temp. Windchill Dew Point Humidity Pressure Visibility Wind Dir Wind Speed Gust Speed Precip Events Conditions
12:53 AM 37.0 °F 27.4 °F 27.0 °F 67% 29.73 in 10.0 mi SSE 17.3 mph 28.8 mph N/A   Scattered Clouds
1:53 AM 37.9 °F 29.6 °F 27.0 °F 65% 29.68 in 10.0 mi SE 13.8 mph - N/A   Clear
2:53 AM 39.9 °F 33.4 °F 27.0 °F 60% 29.65 in 10.0 mi SSE 10.4 mph - N/A   Clear
3:53 AM 45.0 °F 36.9 °F 26.1 °F 48% 29.59 in 10.0 mi South 20.7 mph 28.8 mph N/A   Clear
4:53 AM 44.1 °F 40.8 °F 25.0 °F 47% 29.58 in 10.0 mi SW 5.8 mph - N/A   Clear
5:53 AM 48.9 °F - 24.1 °F 38% 29.55 in 10.0 mi Calm Calm - N/A   Clear
6:53 AM 48.9 °F - 24.1 °F 38% 29.53 in 10.0 mi SSW 6.9 mph - N/A   Clear
7:53 AM 45.0 °F 41.2 °F 25.0 °F 46% 29.54 in 10.0 mi South 6.9 mph - N/A   Clear
8:53 AM 48.0 °F - 26.1 °F 42% 29.50 in 10.0 mi SSE 13.8 mph - N/A   Clear
9:39 AM 51.1 °F - 24.1 °F 35% 29.49 in 10.0 mi WSW 23.0 mph 29.9 mph N/A   Clear
9:53 AM 51.1 °F - 25.0 °F 36% 29.48 in 10.0 mi West 13.8 mph 24.2 mph N/A   Clear
10:53 AM 50.0 °F - 26.1 °F 39% 29.47 in 10.0 mi South 8.1 mph 24.2 mph N/A   Clear
11:53 AM 55.9 °F - 24.1 °F 29% 29.44 in 10.0 mi North - - N/A   Clear
12:53 PM 55.9 °F - 27.0 °F 33% 29.40 in 10.0 mi West 21.9 mph 29.9 mph N/A   Clear
1:53 PM 51.1 °F - 28.9 °F 43% 29.44 in 10.0 mi West 26.5 mph 40.3 mph N/A   Mostly Cloudy
2:53 PM 44.1 °F 35.2 °F 30.9 °F 60% 29.55 in 10.0 mi NNW 23.0 mph 40.3 mph 0.00 in Rain Light Rain
2:57 PM 39.9 °F 27.5 °F 30.0 °F 68% 29.55 in 10.0 mi North 35.7 mph 46.0 mph 0.00 in Rain Light Rain
3:06 PM 36.0 °F 23.0 °F 30.0 °F 79% 29.56 in 10.0 mi North 29.9 mph 43.7 mph 0.00 in Snow Light Snow
3:53 PM 33.1 °F 19.1 °F 28.9 °F 85% 29.62 in 8.0 mi NNW 29.9 mph 46.0 mph 0.00 in Snow Light Snow
4:08 PM 33.1 °F 18.0 °F 28.9 °F 85% 29.66 in 10.0 mi NNW 35.7 mph 42.6 mph 0.00 in   Overcast
4:20 PM 32.0 °F 18.4 °F 28.9 °F 88% 29.70 in 4.0 mi NW 26.5 mph 39.1 mph 0.00 in Snow Light Snow
4:23 PM 32.0 °F 19.2 °F 28.9 °F 88% 29.69 in 2.5 mi NNW 23.0 mph 39.1 mph 0.00 in Snow Light Snow
4:26 PM 32.0 °F 18.9 °F 28.9 °F 88% 29.69 in 1.5 mi NNW 24.2 mph 38.0 mph 0.00 in Snow Light Snow
4:29 PM 30.9 °F 17.5 °F 28.9 °F 92% 29.69 in 0.8 mi NNW 24.2 mph 39.1 mph 0.00 in Snow Light Snow
4:38 PM 30.9 °F 17.8 °F 28.9 °F 92% 29.64 in 0.5 mi North 23.0 mph 34.5 mph 0.00 in Fog , Snow Snow
4:53 PM 30.9 °F 16.7 °F 28.9 °F 92% 29.69 in 0.8 mi North 27.6 mph 43.7 mph 0.00 in Snow Light Snow
4:58 PM 30.9 °F 16.4 °F 28.9 °F 92% 29.67 in 1.2 mi North 28.8 mph 43.7 mph 0.00 in Snow Light Snow
5:18 PM 30.0 °F 16.3 °F 28.0 °F 92% 29.68 in 2.0 mi NNW 24.2 mph 39.1 mph 0.00 in Snow Light Snow
5:27 PM 30.0 °F 16.6 °F 28.0 °F 92% 29.67 in 8.0 mi NNW 23.0 mph 35.7 mph 0.00 in   Overcast
5:40 PM 30.0 °F 16.6 °F 28.0 °F 92% 29.69 in 10.0 mi NNW 23.0 mph 39.1 mph 0.00 in   Overcast
5:53 PM 30.0 °F 17.2 °F 28.0 °F 92% 29.72 in 9.0 mi North 20.7 mph 35.7 mph 0.00 in   Overcast
6:02 PM 30.0 °F 16.3 °F 28.0 °F 92% 29.71 in 1.8 mi NNW 24.2 mph 39.1 mph 0.00 in Snow Light Snow
6:06 PM 30.0 °F 16.6 °F 28.0 °F 92% 29.72 in 2.0 mi NNW 23.0 mph 39.1 mph 0.00 in Snow Light Snow
6:10 PM 30.0 °F 16.9 °F 27.0 °F 88% 29.71 in 3.0 mi North 21.9 mph 33.4 mph 0.00 in Snow Light Snow
6:23 PM 30.0 °F 17.9 °F 27.0 °F 88% 29.72 in 10.0 mi North 18.4 mph 24.2 mph 0.00 in   Scattered Clouds
6:53 PM 30.0 °F 21.1 °F 26.1 °F 85% 29.77 in 10.0 mi North 10.4 mph 20.7 mph 0.00 in   Clear
7:53 PM 30.0 °F - 23.0 °F 75% 29.82 in 10.0 mi Calm Calm - N/A   Mostly Cloudy
8:53 PM 30.0 °F 21.7 °F 19.9 °F 66% 29.85 in 10.0 mi NNW 9.2 mph - N/A   Mostly Cloudy
9:53 PM 30.9 °F 22.8 °F 18.0 °F 59% 29.85 in 10.0 mi NNW 9.2 mph 18.4 mph N/A   Clear
10:53 PM 30.0 °F 19.1 °F 18.0 °F 61% 29.89 in 10.0 mi NW 15.0 mph 19.6 mph N/A   Clear
11:53 PM 24.1 °F 15.2 °F 16.0 °F 71% 29.90 in 10.0 mi South 8.1 mph - N/A   Clear